Weather History for Highgate, VT

Change the Weather History Date:

Thursday, April 4, 2013

  Actual Average (KPBG) Record (KPBG)
Temperature  
Mean Temperature 42 °F 37 °F  
Max Temperature 54 °F 47 °F 71 °F (1981)
Min Temperature 29 °F 27 °F 8 °F (1954)
Degree Days  
Heating Degree Days 24 28  
Month to date heating degree days 114  
Since 1 July heating degree days 6797  
Cooling Degree Days 0 0  
Month to date cooling degree days 0  
Year to date cooling degree days 0  
Moisture  
Dew Point 13 °F    
Average Humidity 35    
Maximum Humidity 53    
Minimum Humidity 19    
Precipitation  
Precipitation 0.00 in - 0.72 in (1975)
Month to date precipitation  
Year to date precipitation  
Sea Level Pressure  
Sea Level Pressure 30.08 in    
Wind  
Wind Speed 5 mph (SW)    
Max Wind Speed 14 mph    
Max Gust Speed 23 mph    
Visibility 10 miles    
Events      
T = Trace of Precipitation, MM = Missing Value Source: NWS Daily Summary

Daily Weather History Graph

Daily Weather History Graph

Search for Another Location

Airport:

Trip Planner

Search our weather history database for the weather conditions in past years. The results will help you decide how hot, cold, wet, or windy it might be!

Date:

Astronomy

Apr. 04, 2013 Rise Set
Actual Time 6:27 AM EDT 7:24 PM EDT
Civil Twilight 5:57 AM EDT 7:54 PM EDT
Nautical Twilight 5:21 AM EDT 8:29 PM EDT
Astronomical Twilight 4:44 AM EDT 9:07 PM EDT
Moon 3:06 AM EDT (4/4) 1:25 PM EDT (4/4)
Length of Visible Light 13h 56m
Length of Day
12h 57m
Waning Crescent, 34% of the Moon is Illuminated
Apr 4
Waning Crescent
Apr 10
New
Apr 18
First Quarter
Apr 25
Full
May 2
Last Quarter

Hourly Weather History & Observations

Time (EDT) Temp. Windchill Dew Point Humidity Pressure Visibility Wind Dir Wind Speed Gust Speed Precip Events Conditions
12:15 AM 32.0 °F 28.7 °F 13.6 °F 47% 30.19 in 10.0 mi West 3.5 mph - N/A   Clear
12:35 AM 32.0 °F 26.4 °F 12.9 °F 45% 30.19 in 10.0 mi West 5.8 mph - N/A   Clear
12:55 AM 32.0 °F 24.8 °F 10.6 °F 41% 30.19 in 10.0 mi WNW 8.1 mph - N/A   Clear
1:15 AM 33.1 °F 28.7 °F 11.1 °F 40% 30.20 in 10.0 mi WNW 4.6 mph - N/A   Clear
1:35 AM 32.0 °F 26.4 °F 10.2 °F 40% 30.19 in 10.0 mi West 5.8 mph - N/A   Clear
1:55 AM 32.0 °F 28.7 °F 11.1 °F 42% 30.19 in 10.0 mi West 3.5 mph - N/A   Clear
2:15 AM 32.0 °F 27.5 °F 11.1 °F 42% 30.19 in 10.0 mi West 4.6 mph - N/A   Clear
2:35 AM 30.7 °F 24.9 °F 11.3 °F 44% 30.19 in 10.0 mi West 5.8 mph - N/A   Clear
2:55 AM 30.7 °F 26.0 °F 11.3 °F 44% 30.18 in 10.0 mi West 4.6 mph - N/A   Clear
3:15 AM 30.6 °F 24.7 °F 10.9 °F 44% 30.19 in 10.0 mi West 5.8 mph - N/A   Clear
3:55 AM 29.7 °F - 11.1 °F 46% 30.19 in 10.0 mi Calm Calm - N/A   Clear
4:15 AM 29.3 °F 25.6 °F 11.8 °F 48% 30.20 in 10.0 mi WSW 3.5 mph - N/A   Clear
4:35 AM 29.3 °F - 12.4 °F 49% 30.20 in 10.0 mi Calm Calm - N/A   Clear
5:15 AM 29.3 °F - 13.8 °F 53% 30.21 in 10.0 mi Calm Calm - N/A   Clear
5:35 AM 29.3 °F - 13.1 °F 51% 30.21 in 10.0 mi Calm Calm - N/A   Clear
5:55 AM 29.3 °F - 14.0 °F 53% 30.22 in 10.0 mi Calm Calm - N/A   Clear
6:15 AM 29.3 °F - 13.6 °F 52% 30.22 in 10.0 mi Calm Calm - N/A   Clear
6:35 AM 29.3 °F 25.6 °F 13.1 °F 51% 30.22 in 10.0 mi SW 3.5 mph - N/A   Clear
6:55 AM 29.3 °F - 12.4 °F 49% 30.23 in 10.0 mi Calm Calm - N/A   Clear
7:15 AM 29.3 °F 25.6 °F 11.7 °F 48% 30.23 in 10.0 mi SSW 3.5 mph - N/A   Clear
7:55 AM 31.5 °F 26.8 °F 13.6 °F 48% 30.24 in 10.0 mi SSW 4.6 mph - N/A   Clear
8:15 AM 32.2 °F 27.7 °F 14.2 °F 48% 30.24 in 10.0 mi SSW 4.6 mph - N/A   Clear
8:35 AM 34.2 °F 29.0 °F 16.2 °F 48% 30.24 in 10.0 mi South 5.8 mph - N/A   Clear
8:55 AM 34.2 °F 28.2 °F 14.2 °F 44% 30.23 in 10.0 mi SSW 6.9 mph - N/A   Clear
9:15 AM 34.3 °F 29.2 °F 14.5 °F 44% 30.23 in 10.0 mi SW 5.8 mph - N/A   Clear
9:35 AM 36.5 °F 31.0 °F 15.6 °F 43% 30.22 in 10.0 mi South 6.9 mph - N/A   Clear
9:55 AM 36.7 °F 31.2 °F 14.2 °F 40% 30.20 in 10.0 mi SSW 6.9 mph - N/A   Clear
10:15 AM 36.7 °F 29.9 °F 13.3 °F 38% 30.20 in 10.0 mi SSW 9.2 mph - N/A   Clear
10:35 AM 39.2 °F 32.5 °F 14.0 °F 36% 30.19 in 10.0 mi SW 10.4 mph 17.3 mph N/A   Clear
10:55 AM 40.5 °F 35.8 °F 10.9 °F 30% 30.17 in 10.0 mi SSW 6.9 mph - N/A   Clear
11:15 AM 40.3 °F 33.9 °F 9.9 °F 29% 30.16 in 10.0 mi SW 10.4 mph - N/A   Clear
11:35 AM 40.1 °F 34.1 °F 9.1 °F 28% 30.14 in 10.0 mi SSW 9.2 mph 16.1 mph N/A   Clear
11:55 AM 42.3 °F 36.3 °F 9.7 °F 26% 30.13 in 10.0 mi SSW 10.4 mph 16.1 mph N/A   Clear
12:15 PM 43.2 °F 37.4 °F 8.6 °F 24% 30.12 in 10.0 mi South 10.4 mph 18.4 mph N/A   Clear
12:35 PM 43.9 °F 38.8 °F 8.2 °F 23% 30.10 in 10.0 mi South 9.2 mph 17.3 mph N/A   Clear
12:55 PM 46.8 °F - 8.6 °F 21% 30.09 in 10.0 mi South 9.2 mph 18.4 mph N/A   Clear
1:15 PM 48.6 °F - 9.0 °F 20% 30.08 in 10.0 mi South 9.2 mph 17.3 mph N/A   Clear
1:35 PM 49.3 °F - 9.5 °F 20% 30.07 in 10.0 mi SSW 10.4 mph 18.4 mph N/A   Clear
1:55 PM 49.3 °F - 9.9 °F 20% 30.05 in 10.0 mi South 10.4 mph 23.0 mph N/A   Clear
2:15 PM 49.3 °F - 9.7 °F 20% 30.04 in 10.0 mi SSW 12.7 mph 21.9 mph N/A   Clear
2:35 PM 49.3 °F - 9.3 °F 20% 30.03 in 10.0 mi SSW 12.7 mph 21.9 mph N/A   Clear
2:55 PM 50.9 °F - 10.8 °F 20% 30.02 in 10.0 mi SSW 13.8 mph 20.7 mph N/A   Clear
3:15 PM 51.8 °F - 11.1 °F 20% 30.00 in 10.0 mi SSW 9.2 mph 20.7 mph N/A   Clear
3:55 PM 54.3 °F - 13.3 °F 20% 29.97 in 10.0 mi SSW 6.9 mph 19.6 mph N/A   Clear
4:15 PM 54.5 °F - 13.3 °F 20% 29.96 in 10.0 mi SSW 12.7 mph 18.4 mph N/A   Clear
4:35 PM 54.5 °F - 13.1 °F 19% 29.95 in 10.0 mi South 12.7 mph 19.6 mph N/A   Clear
4:55 PM 54.5 °F - 14.5 °F 21% 29.94 in 10.0 mi South 11.5 mph 16.1 mph N/A   Clear
5:15 PM 54.5 °F - 15.6 °F 22% 29.93 in 10.0 mi South 8.1 mph 18.4 mph N/A   Clear
5:35 PM 54.5 °F - 17.4 °F 23% 29.92 in 10.0 mi SSW 6.9 mph 17.3 mph N/A   Clear
5:55 PM 54.5 °F - 18.1 °F 24% 29.93 in 10.0 mi SSW 8.1 mph 19.6 mph N/A   Clear
6:15 PM 53.1 °F - 18.9 °F 26% 29.92 in 10.0 mi SSW 9.2 mph - N/A   Clear
6:35 PM 51.8 °F - 18.3 °F 27% 29.92 in 10.0 mi SSW 6.9 mph - N/A   Clear
6:55 PM 50.4 °F - 18.1 °F 28% 29.92 in 10.0 mi SSW 6.9 mph - N/A   Clear
7:15 PM 49.3 °F - 18.0 °F 29% 29.93 in 10.0 mi SSW 5.8 mph - N/A   Clear
7:55 PM 48.6 °F - 20.8 °F 34% 29.93 in 10.0 mi SSW 3.5 mph - N/A   Mostly Cloudy
8:15 PM 46.8 °F - 17.2 °F 31% 29.93 in 10.0 mi SW 4.6 mph - N/A   Scattered Clouds
8:35 PM 49.3 °F - 11.3 °F 22% 29.93 in 10.0 mi SW 6.9 mph 16.1 mph N/A   Scattered Clouds
8:55 PM 48.4 °F - 15.3 °F 27% 29.94 in 10.0 mi SW 5.8 mph - N/A   Mostly Cloudy
9:35 PM 46.8 °F - 15.4 °F 29% 29.94 in 10.0 mi South 4.6 mph - N/A   Overcast
9:55 PM 42.8 °F 41.1 °F 16.3 °F 34% 29.93 in 10.0 mi South 3.5 mph - N/A   Overcast
10:15 PM 43.0 °F 40.3 °F 16.7 °F 35% 29.92 in 10.0 mi SSE 4.6 mph - N/A   Overcast
10:35 PM 43.0 °F - 17.2 °F 36% 29.91 in 10.0 mi Calm Calm - N/A   Mostly Cloudy
10:55 PM 42.8 °F - 16.9 °F 35% 29.90 in 10.0 mi Calm Calm - N/A   Mostly Cloudy
11:15 PM 42.3 °F - 17.8 °F 37% 29.90 in 10.0 mi Calm Calm - N/A   Overcast
11:35 PM 41.5 °F 39.6 °F 19.4 °F 41% 29.88 in 10.0 mi SW 3.5 mph - N/A   Mostly Cloudy
11:55 PM 41.9 °F - 21.6 °F 44% 29.87 in 10.0 mi Calm Calm - N/A   Scattered Clouds